Location: eljas
(40.1958°N, 6.8661°W)
Time: 04:10:54
(UTC+02:00)

Daily predictions for brighter satellites

Satellite Brightness Start Highest point End
(mag) Time Altitude Azimuth Time Altitude Azimuth Time Altitude Azimuth
SL-8 R/B 3.6 00:02:02 10° SW 00:06:50 68° SE 00:11:38 10° ENE
OAO 3 Rocket 3.5 00:06:21 10° WSW 00:11:03 46° S 00:12:01 40° SE
Cosmos 1331 Rocket 4.0 00:07:20 10° NNW 00:12:33 71° ENE 00:14:35 37° SE
Landsat 7 3.8 00:10:38 35° SSE 00:12:38 88° W 00:17:25 10° NNW
Cosmos-2242 3.8 00:08:46 10° NNW 00:13:01 49° W 00:15:15 25° SSW
Cosmos 1842 Rocket 3.7 00:08:44 10° N 00:13:01 56° E 00:14:04 43° SE
Cosmos 1726 2.0 00:10:12 10° N 00:13:58 80° E 00:14:40 57° SSE
IGS 5A 3.4 00:15:35 48° SSE 00:16:42 78° ENE 00:20:51 10° N
KORONAS-FOTON 3.9 00:16:04 38° SSW 00:17:28 73° W 00:21:23 10° N
CZ-2C R/B 3.5 00:15:44 33° SE 00:18:13 60° ENE 00:23:56 10° N
Meteor 2-1 Rocket 4.4 00:12:57 10° NNW 00:18:53 79° W 00:21:55 30° S
Cosmos 2082 Rocket 4.2 00:17:39 10° N 00:21:26 18° NE 00:24:43 11° E
BREEZE-M DEB (TANK) 4.1 00:14:39 10° WSW 00:22:00 46° NNW 00:24:50 10° NE
Cosmos 494 Rocket 4.1 00:19:07 18° SSW 00:23:00 76° WNW 00:28:18 10° NNE
ATLAS 2AS CENTAUR R/B 3.2 00:15:25 10° SW 00:23:14 75° NW 00:31:23 10° NNE
ATLAS 5 CENTAUR R/B 3.7 00:28:03 15° E 00:28:03 15° E 00:29:22 10° ENE
Cosmos 2084 3.2 00:25:11 10° NW 00:28:59 62° WSW 00:29:20 58° SSW
Cosmos 1745 Rocket 4.0 00:23:33 10° N 00:29:56 89° E 00:32:46 36° S
Cosmos 1833 Rocket 4.4 00:27:15 10° N 00:31:38 23° NE 00:34:16 17° E
Terra 1.7 00:30:34 47° S 00:31:58 87° WSW 00:36:46 10° NNW
Cosmos 2251 Rocket 3.5 00:32:27 42° S 00:34:12 69° ESE 00:39:31 10° NNE
Cosmos 1302 Rocket 4.1 00:32:46 10° NNW 00:38:03 67° ENE 00:39:28 47° SE
Helios 1A 4.3 00:36:57 26° SW 00:38:20 33° W 00:42:09 10° NNW
Mayak 1.1 00:40:16 10° ENE 00:41:13 12° ENE 00:41:13 12° ENE
Spot 4 4.3 00:46:21 44° ESE 00:47:16 50° ENE 00:51:58 10° N
Spot 1 4.4 00:46:51 47° SW 00:47:40 55° W 00:52:03 10° NNW
CZ-2C R/B 2.5 00:43:08 10° NNE 00:48:37 75° ESE 00:50:02 50° S
Meteor 1-21 Rocket 4.5 00:49:02 31° SSW 00:51:54 70° W 00:57:44 10° N
Helios 1B rocket 4.1 00:54:26 10° N 00:58:02 29° WNW 01:00:06 19° WSW
NOSS 3-4 (A) 3.3 00:58:13 43° S 01:00:17 70° ESE 01:06:37 10° NE
NOSS 3-4 (C) 3.3 00:58:22 44° S 01:00:22 69° ESE 01:06:42 10° NE
Cosmos 1328 4.0 01:01:20 60° NE 01:01:20 60° NE 01:04:48 10° NNE
NOSS 2-2 (E) 4.4 01:02:27 33° ENE 01:02:27 33° ENE 01:05:11 10° NE
Cosmos 2221 2.4 00:58:01 10° N 01:02:22 79° W 01:02:35 76° SW
Cosmos 1709 Rocket 3.9 00:57:28 10° N 01:03:44 82° E 01:05:28 50° SSE
Aureole 3 Rocket 4.3 01:03:23 39° S 01:06:43 76° E 01:13:01 10° NNE
Lacrosse 5 4.0 01:03:28 10° W 01:07:47 27° NNW 01:12:06 10° NNE
Cosmos 1340 4.3 01:05:52 10° NW 01:08:59 25° W 01:09:15 24° W
Cosmos 1626 2.5 01:12:44 61° NNW 01:12:44 61° NNW 01:15:57 10° N
CENTAUR R/B 3.9 01:07:01 10° NNW 01:14:34 46° NE 01:20:01 21° ESE
Cosmos 2058 4.4 01:17:17 26° ENE 01:17:17 26° ENE 01:20:00 10° NNE
Cosmos 2278 Rocket 2.4 01:15:05 37° SW 01:17:18 70° WNW 01:22:59 10° NNE
Cosmos 1300 3.8 01:13:51 10° NNW 01:17:14 36° W 01:17:14 36° W
CZ-4 R/B 4.0 01:12:40 10° NNE 01:17:16 56° E 01:17:16 56° E
Cosmos 1455 3.4 01:14:09 10° N 01:16:57 34° NE 01:16:57 34° NE
ADEOS Rocket 3.5 01:15:57 10° NNE 01:21:33 42° E 01:22:14 40° ESE
COSMOS 2406 4.1 01:18:06 10° NW 01:23:18 36° WSW 01:24:28 32° SW
USA 234 3.8 01:18:55 10° ENE 01:24:21 36° ESE 01:24:21 36° ESE
ALOS 2 3.4 01:28:17 39° ENE 01:28:17 39° ENE 01:32:21 10° N
Cosmos 2315 Rocket 4.2 01:27:15 41° SW 01:29:24 65° W 01:35:44 10° N
NOSS 2-2 (D) 3.9 01:31:53 51° NE 01:31:53 51° NE 01:35:11 10° NE
Meteor 1-27 4.2 01:39:28 10° N 01:45:21 87° E 01:46:11 67° SSE
Cosmos 1766 Rocket 3.7 01:46:14 70° NW 01:46:14 70° NW 01:50:28 10° N
Cosmos 1461 4.1 01:45:17 35° W 01:46:37 44° NW 01:51:12 10° NNE
DELTA 2 DEB (DPAF) 4.3 01:48:39 64° NE 01:48:39 64° NE 01:52:50 10° N
Cosmos 1408 Rocket 3.7 01:48:55 74° NNW 01:48:55 74° NNW 01:53:01 10° N
Cosmos 1441 Rocket 4.3 01:45:59 10° N 01:48:46 41° NNE 01:48:46 41° NNE
Cosmos 2369 Rocket 4.1 01:50:31 16° E 01:50:31 16° E 01:53:17 10° ENE
Cosmos 2184 Rocket 3.9 01:44:12 10° N 01:50:34 76° E 01:51:43 60° SSE
ATLAS 3B R/B 3.3 01:47:48 10° NW 01:53:44 36° WSW 01:54:27 35° SW
Cosmos 2297 3.6 01:55:50 69° SSW 01:56:34 86° WNW 02:02:19 10° NNE
Cosmos 405 Rocket 4.0 01:53:18 10° N 01:55:50 36° NNE 01:55:50 36° NNE
Cosmos 1515 Rocket 4.2 01:52:39 10° N 01:56:32 49° ENE 01:56:32 49° ENE
NOSS 2-2 (C) 4.1 01:57:13 50° NW 01:57:13 50° NW 02:01:15 10° NNE
Cosmos 2154 Rocket 4.5 01:50:57 10° N 01:57:06 49° ENE 01:58:27 42° ESE
Meteor 2-21 4.5 01:51:22 10° N 01:57:23 64° E 01:58:20 56° ESE
Cosmos 1151 Rocket 3.6 01:54:59 10° N 01:58:36 49° NE 01:58:36 49° NE
Meteor 2-10 Rocket 4.0 01:56:19 10° N 02:01:17 48° ENE 02:01:38 47° E
RESURS DK-1 2.9 02:02:38 56° N 02:02:38 56° N 02:06:00 10° NNE
H-2A R/B 2.6 02:02:36 50° NE 02:02:36 50° NE 02:06:02 10° N
Cosmos 1869 4.4 02:01:48 10° N 02:04:50 39° NE 02:04:50 39° NE
Cosmos 2082 Rocket 2.1 02:00:26 10° NNW 02:06:10 75° WSW 02:06:32 72° SSW
SL-27 R/B 4.2 02:06:38 10° NNW 02:08:46 32° NW 02:08:46 32° NW
ATLAS 5 CENTAUR R/B 2.5 02:09:33 42° W 02:10:18 46° NW 02:15:03 10° NNE
Cosmos 1833 Rocket 2.9 02:10:25 10° NNW 02:15:53 54° WSW 02:15:57 54° WSW
Cosmos 2228 Rocket 3.3 02:12:14 10° N 02:16:10 67° NNE 02:16:10 67° NNE
Mayak -0.4 02:14:12 10° N 02:17:50 45° NW 02:17:50 45° NW
deb Chang Zheng 4 4.1 02:17:12 10° NNE 02:20:51 53° ENE 02:20:51 53° ENE
Cosmos 332 Rocket 4.2 02:21:24 10° N 02:26:14 54° ENE 02:26:27 53° E
Cosmos 2151 3.9 02:31:01 43° WNW 02:31:01 43° WNW 02:34:37 10° N
Meteor 2-16 Rocket 4.3 02:30:31 10° N 02:36:42 86° E 02:37:37 67° SSE
Nadezhda 1 Rocket 4.3 02:36:43 50° SW 02:38:02 60° W 02:44:23 10° N
CZ-4B R/B 4.0 02:33:51 10° N 02:38:59 52° WNW 02:39:38 49° W
Cosmos 1743 Rocket 4.4 02:40:12 44° WNW 02:40:12 44° WNW 02:44:01 10° N
Cosmos 1943 Rocket 3.1 02:41:26 33° ESE 02:41:26 33° ESE 02:46:16 10° NE
Cosmos 1900 4.4 02:43:31 71° ENE 02:43:31 71° ENE 02:48:02 10° NNE
Cosmos 1805 Rocket 4.1 02:49:35 53° ENE 02:49:35 53° ENE 02:53:19 10° NNE
MOS 1 Rocket 3.5 02:49:38 10° NNE 02:54:27 64° E 02:54:27 64° E
Cosmos 1140 Rocket 3.3 02:55:35 80° W 02:55:42 81° WNW 03:00:52 10° NNE
Cosmos 676 Rocket 4.0 02:57:26 67° W 02:57:43 68° WNW 03:02:54 10° NNE
Cosmos 1933 4.4 02:53:55 10° N 02:57:16 39° ENE 02:57:16 39° ENE
Cosmos 1954 Rocket 3.8 02:57:59 77° W 02:58:09 79° WNW 03:03:21 10° NNE
Sich 1 3.7 02:58:51 47° ENE 02:58:51 47° ENE 03:02:39 10° NNE
CENTAUR R/B 3.4 02:57:45 10° NW 03:05:31 50° WSW 03:07:09 45° SSW
CZ-4B R/B 3.9 03:06:41 15° ENE 03:06:41 15° ENE 03:08:18 10° NNE
COSMOS 2487 4.1 03:03:01 10° NNW 03:05:03 32° NNW 03:05:03 32° NNW
ADEOS Rocket 4.3 03:01:55 10° N 03:06:54 30° WNW 03:09:12 23° WSW
Cosmos 614 Rocket 4.1 03:06:54 58° W 03:07:17 60° WNW 03:12:23 10° NNE
USA 234 3.6 03:01:38 10° NE 03:08:05 63° NW 03:11:39 28° WSW
Cosmos 1892 3.6 03:11:12 47° NNE 03:11:12 47° NNE 03:14:01 10° N
Cosmos 1707 Rocket 3.7 03:09:33 10° N 03:13:41 68° NE 03:13:41 68° NE
Cosmos 1633 Rocket 3.4 03:17:25 58° E 03:17:25 58° E 03:21:33 10° NNE
Meteor 2-3 Rocket 4.1 03:18:58 46° SE 03:20:05 53° E 03:25:41 10° NNE
CZ-4C R/B 4.0 03:22:05 48° NNE 03:22:05 48° NNE 03:24:58 10° N
Resurs 1-4 Rocket 3.9 03:24:32 10° NE 03:28:32 21° E 03:30:16 18° ESE
Cosmos 304 Rocket 3.7 03:24:58 10° NNW 03:29:46 77° ENE 03:30:09 72° ESE
Cosmos 2369 Rocket 2.3 03:32:17 55° WSW 03:33:20 68° WNW 03:39:00 10° NNE
PSLV R/B 3.8 03:29:08 10° N 03:33:50 65° WNW 03:34:04 64° W
Landsat 5 3.7 03:37:13 58° ENE 03:37:13 58° ENE 03:40:48 10° N
Cosmos 1666 Rocket 3.7 03:40:08 60° WNW 03:40:08 60° WNW 03:44:14 10° N
Cosmos 1850 Rocket 3.9 03:39:52 65° WSW 03:40:31 74° WNW 03:45:46 10° NNE
Cosmos 1933 Rocket 4.0 03:45:01 47° ESE 03:45:21 49° E 03:49:34 10° NNE
ARIANE 5 R/B 4.3 03:56:14 10° NE 04:00:06 22° E 04:02:29 16° SE
GP-B 3.3 03:55:53 10° N 04:00:19 65° E 04:01:01 55° SE
Cosmos 1689 Rocket 3.4 04:03:55 40° N 04:03:55 40° N 04:06:00 10° N
Lacrosse 4 Rocket 2.1 04:03:48 41° SE 04:04:12 43° ESE 04:08:24 10° NE
Cosmos 2242 Rocket 3.4 04:00:40 10° N 04:05:10 86° W 04:05:40 70° S
SL-08 R/B 4.1 04:03:53 25° SE 04:06:20 47° ENE 04:10:51 10° N
Cosmos 1763 Rocket 4.1 04:01:31 10° N 04:06:29 53° ENE 04:09:36 22° SE
Cosmos 2218 Rocket 4.5 04:01:50 10° NNW 04:07:35 43° W 04:08:57 38° WSW
Cosmos 1656 Rocket 3.6 04:10:26 47° S 04:12:07 80° ESE 04:17:47 10° NNE
Cosmos 1833 4.0 04:13:53 10° NNW 04:19:29 81° WSW 04:22:03 34° SSE
Cosmos 1867 3.8 04:18:09 41° S 04:19:46 58° ESE 04:25:07 10° NE
Cosmos 1606 2.6 04:16:43 10° NNW 04:20:28 68° W 04:20:28 68° W
Cosmos 1814 Rocket 4.3 04:16:30 10° NNW 04:21:48 67° ENE 04:25:19 21° SSE
Meteor 2-6 Rocket 4.3 04:17:11 10° N 04:22:34 69° E 04:25:36 27° SSE
Cosmos 1825 2.7 04:23:08 44° WNW 04:23:08 44° WNW 04:26:41 10° N
NPP 3.6 04:19:22 10° NNE 04:24:48 86° WNW 04:26:43 42° SSW
Cosmos 1943 Rocket 3.2 04:22:57 26° W 04:25:02 34° WNW 04:30:05 10° N
Cosmos 2208 Rocket 4.5 04:28:50 10° NNW 04:33:56 44° WSW 04:35:06 39° SW
Cosmos 1818 3.5 04:28:34 10° NNW 04:34:05 90° SSW 04:39:15 12° SSE
SL-16 R/B 2.4 04:31:15 25° SSE 04:35:01 84° WSW 04:41:14 10° NNW
Cosmos 1408 4.0 04:35:37 26° WNW 04:35:37 26° WNW 04:38:43 10° NNW
Cosmos 841 Rocket 3.7 04:30:34 10° NNW 04:35:47 68° ENE 04:40:08 14° SSE
CZ-2D R/B 2.1 04:30:30 10° NNE 04:35:50 86° ESE 04:38:09 36° S
CZ-4B R/B 3.4 04:40:07 16° WNW 04:40:07 16° WNW 04:41:11 10° NW
Meteor 1-10 Rocket 4.1 04:33:49 10° N 04:39:25 84° W 04:42:34 28° S
Cosmos 1862 Rocket 4.3 04:36:07 10° NNW 04:40:14 36° W 04:40:42 35° WSW
ADEOS II 4.1 04:36:46 10° NE 04:40:47 22° E 04:44:47 10° SE
Cosmos 1703 Rocket 3.5 04:36:46 10° N 04:41:12 81° E 04:43:09 33° SSE
Meteor 1-27 Rocket 4.2 04:36:28 10° N 04:42:14 62° ENE 04:47:41 12° SSE
Cosmos 468 Rocket 4.4 04:38:32 10° NNW 04:43:22 43° WSW 04:44:31 37° SW
AQUA 3.8 04:38:50 10° N 04:43:34 68° WNW 04:45:16 39° SW
Cosmos 1437 Rocket 3.2 04:43:35 33° SSE 04:45:11 59° E 04:49:15 10° NNE
Cosmos 2219 4.3 04:39:58 10° NNW 04:45:24 44° ENE 04:50:46 10° SE
IRS-1D 3.4 04:41:09 10° NNE 04:46:19 86° ESE 04:48:41 32° SSW
Cosmos 1535 Rocket 4.4 04:40:44 10° N 04:46:52 86° W 04:51:02 22° S
IRS-P3 4.3 04:42:22 10° N 04:47:38 60° WNW 04:49:56 33° SW
Nadezhda 3 Rocket 4.5 04:46:25 30° SW 04:49:12 48° WNW 04:55:20 10° N
Cosmos 1605 Rocket 4.4 04:44:53 10° N 04:50:56 61° E 04:56:59 10° SSE
Cosmos 1782 3.5 04:50:16 10° NNW 04:53:53 35° W 04:54:14 34° WSW
Okean 1-7 3.0 04:50:28 10° N 04:54:53 83° E 04:57:28 24° S
BREEZE-M DEB (TANK) 2.7 04:56:04 10° NW 04:58:26 64° NE 05:03:32 10° ESE
ERS-1 4.5 04:54:56 10° NNE 05:00:10 84° WNW 05:03:05 27° SSW
UNK 4.2 04:59:57 32° SW 05:01:30 44° W 05:05:57 10° NNW
H-2A R/B 2.9 05:00:45 10° N 05:04:34 44° WNW 05:05:51 32° WSW
Cosmos 1184 Rocket 3.0 05:01:32 10° N 05:04:48 69° E 05:06:33 25° SSE
Cosmos 1486 Rocket 4.1 05:02:10 29° SSW 05:04:52 70° WNW 05:10:12 10° NNE
MINOTAUR IV R/B 4.5 05:02:55 10° NNW 05:07:25 84° WSW 05:11:49 10° SSE
Resurs 1-4 Rocket 2.6 05:03:28 10° N 05:08:34 47° WNW 05:11:21 25° SW
Cosmos 1934 Rocket 4.0 05:02:49 10° NNW 05:09:05 65° W 05:13:46 18° S
Cosmos 1733 Rocket 4.4 05:06:13 10° SSE 05:10:07 35° E 05:14:04 10° NNE
Cosmos 44 Rocket 4.5 05:07:16 17° S 05:10:24 35° ESE 05:14:54 10° NE
PSLV R/B 3.9 05:08:59 24° S 05:11:25 66° WSW 05:15:38 10° NNW
Cosmos 2297 Rocket 4.2 05:09:03 10° N 05:14:02 31° ENE 05:18:58 10° ESE
Meteor 1-4 Rocket 2.5 05:13:14 30° S 05:14:55 88° WNW 05:18:37 10° N
SL-8 R/B 4.4 05:11:30 10° NW 05:16:16 56° NNE 05:21:00 10° ESE
PSLV R/B 2.9 05:17:00 22° WNW 05:18:46 80° N 05:21:44 10° E
COSMOS 2455 2.8 05:14:57 10° NNW 05:20:59 75° WSW 05:26:57 10° SSE
Cosmos 2227 Rocket 3.7 05:17:01 10° N 05:22:20 39° ENE 05:27:36 10° SE
GPS 2-04 Rocket1 4.3 05:23:01 19° S 05:24:08 22° SSE 05:27:15 10° ESE
Cosmos 44 3.2 05:22:20 23° SSW 05:25:13 81° ESE 05:30:10 10° NNE
Cosmos 1862 4.4 05:25:41 22° WSW 05:27:10 28° WNW 05:30:38 10° NNW
Cosmos 1503 Rocket 3.9 05:27:18 20° SSW 05:30:57 78° WNW 05:36:09 10° NNE
Cosmos 968 Rocket 4.0 05:27:01 12° S 05:31:45 57° ESE 05:36:54 10° NNE
SAR-Lupe-2 3.5 05:34:06 12° S 05:37:18 65° W 05:40:51 10° NNW
ARIANE 5 R/B 3.1 05:34:41 10° N 05:39:20 40° WNW 05:42:49 17° SW
Cosmos 389 Rocket 2.5 05:39:47 14° S 05:42:48 85° E 05:46:27 10° N
Cosmos 1727 Rocket 4.0 05:37:17 13° SSW 05:42:48 67° W 05:49:03 10° N
Lacrosse 4 Rocket 3.3 05:40:07 11° W 05:43:06 20° NW 05:46:28 10° N
Cosmos 2173 Rocket 4.4 05:41:12 10° N 05:47:15 64° E 05:53:18 10° SSE
Okean O Rocket 4.4 05:46:55 10° ENE 05:49:05 13° E 05:51:15 10° ESE
Delta 2 Rocket 3.9 05:46:21 14° WSW 05:50:06 49° S 05:55:00 10° ESE
Cosmos 2221 Rocket 4.5 05:47:06 10° NNW 05:51:00 31° W 05:54:19 13° SSW
UNKNOWN OBJECT B 3.3 05:47:32 10° N 05:51:22 46° WNW 05:54:34 14° SW
BREEZE M DEB (TANK) 4.3 05:51:27 10° NW 05:53:32 16° N 05:55:03 10° NE
Cosmos 1656 4.1 05:49:41 10° S 05:55:19 65° ESE 06:00:56 10° NNE
Meteor 1-25 Rocket 4.3 05:50:17 10° S 05:55:50 84° E 06:01:25 10° N
ASTEX 1 3.4 05:52:58 10° S 05:57:58 82° W 06:03:00 10° N
CZ-2D R/B 4.2 05:54:39 10° N 05:58:37 38° WNW 06:02:05 12° SW
ATLAS CENTAUR R/B 1.1 05:57:10 13° SSW 06:00:25 89° ESE 06:04:24 10° NNE
NOSS 3-1 (C) 4.2 05:53:01 10° NNW 06:00:44 84° NE 06:09:18 10° SE
ADEOS 3.9 05:56:09 10° N 06:01:12 50° WNW 06:06:13 10° SW
Meteor 2-12 Rocket 4.5 05:57:42 10° N 06:03:52 89° W 06:09:58 10° S
SL-19 R/B 4.2 06:02:07 10° SSE 06:05:23 75° ENE 06:09:10 10° N
Cosmos 1633 3.2 06:04:08 12° SSW 06:07:13 37° WNW 06:10:37 10° N
Cosmos 540 Rocket 4.4 06:03:29 10° NW 06:07:49 28° W 06:12:07 10° SSW
PSLV R/B 3.9 06:08:50 10° NNE 06:13:13 70° ESE 06:17:34 10° S
CZ-2D R/B 4.2 06:12:53 10° NW 06:15:09 13° WNW 06:17:26 10° W
Cosmos 2016 Rocket 4.3 06:09:04 10° N 06:15:28 76° E 06:21:48 10° SSE
Cosmos 1697 Rocket 3.2 06:11:39 10° S 06:17:13 63° ESE 06:22:50 10° NNE
Cosmos 1802 Rocket 4.0 06:12:40 10° N 06:18:58 85° W 06:25:09 10° S
SL-16 R/B 4.3 06:17:44 10° WSW 06:19:28 11° W 06:21:11 10° WNW
ADEOS II 2.6 06:15:41 10° N 06:20:40 45° WNW 06:25:38 10° SW
Lacrosse 5 3.5 06:16:50 10° NNW 06:21:37 40° NE 06:26:22 10° ESE
Cosmos 2061 Rocket 4.0 06:15:55 10° N 06:22:09 82° W 06:28:25 10° S
USA 81 4.4 06:19:05 10° SSW 06:24:10 50° W 06:29:19 10° N
